FW1340 Weather Reports


time (UTC)temp
C
wind
direction
speed
KPH
gust
KPH
rain 1hr
cm
rain 24hr
cm
rain mn
cm
humidity
%
barometer
mb
20260508103031 11 270 0.0 0.0 0.00 0.00 0.00 90 1016.6
20260508101536 12 261 0.0 0.0 0.00 0.00 0.00 90 1016.7
20260508100035 12 281 0.0 0.0 0.00 0.00 0.00 90 1016.7
20260508094527 12 282 0.0 0.0 0.00 0.00 0.00 90 1016.6
20260508093026 12 261 0.0 0.0 0.00 0.00 0.00 91 1016.6
20260508091527 12 268 0.0 0.0 0.00 0.00 0.00 90 1016.5
20260508090025 12 288 0.0 0.0 0.00 0.00 0.00 90 1016.5
20260508084520 12 246 0.0 0.0 0.00 0.00 0.00 90 1016.5
20260508083019 12 270 0.0 0.0 0.00 0.00 0.00 90 1016.5
20260508081518 12 263 0.0 0.0 0.00 0.00 0.00 90 1016.4
20260508080020 13 290 0.0 0.0 0.00 0.00 0.00 89 1016.5
20260508074517 13 273 0.0 0.0 0.00 0.00 0.00 88 1016.4
20260508073010 13 269 0.0 0.0 0.00 0.00 0.00 87 1016.4
20260508071509 13 281 0.0 0.0 0.00 0.00 0.00 86 1016.3
20260508070006 14 287 0.0 0.0 0.00 0.00 0.00 85 1016.2
20260508064525 14 285 0.0 0.0 0.00 0.00 0.00 84 1016.1
20260508063005 15 275 0.0 0.0 0.00 0.00 0.00 84 1015.9
20260508061506 15 276 0.0 0.0 0.00 0.00 0.00 83 1015.8
20260508060004 15 257 0.0 0.0 0.00 0.00 0.00 83 1015.8
20260508054506 15 269 0.0 0.0 0.00 0.00 0.00 82 1015.9
20260508053003 16 271 0.0 0.0 0.00 0.00 0.00 81 1016.0
20260508051505 16 269 0.0 0.0 0.00 0.00 0.00 81 1016.0
20260508050001 16 268 0.0 0.0 0.00 0.00 0.00 80 1016.0
20260508044600 17 259 0.0 0.0 0.00 0.00 0.00 78 1015.9
20260508043001 17 254 0.0 0.0 0.00 0.00 0.00 76 1015.6
20260508041600 18 276 0.0 0.0 0.00 0.00 0.00 75 1015.5
20260508040106 18 268 0.0 0.0 0.00 0.00 0.00 72 1015.5
20260508034559 19 255 0.0 0.0 0.00 0.00 0.00 71 1015.2
20260508033059 20 257 0.0 0.0 0.00 0.00 0.00 68 1015.1
20260508031606 21 273 0.0 0.0 0.00 0.00 0.00 67 1015.0
20260508030105 22 274 0.0 0.0 0.00 0.00 0.00 64 1014.9
20260508024557 23 244 0.0 0.0 0.00 0.00 0.00 68 1014.8
20260508023057 24 274 0.0 0.0 0.00 0.00 0.00 65 1014.6
20260508021604 25 252 0.0 0.0 0.00 0.00 0.00 62 1014.5
20260508020055 26 244 0.0 0.0 0.00 0.00 0.00 59 1014.4
20260508014554 27 261 0.0 0.0 0.00 0.00 0.00 56 1014.4
20260508013056 27 231 0.0 0.0 0.00 0.00 0.00 56 1014.4
20260508011556 28 286 0.0 0.0 0.00 0.00 0.00 54 1014.4
20260508010051 28 306 0.0 0.0 0.00 0.00 0.00 53 1014.5
20260508004551 28 355 0.0 0.0 0.00 0.00 0.00 52 1014.5
20260508003050 28 272 0.0 0.0 0.00 0.00 0.00 52 1014.6
20260508001549 28 327 0.0 0.0 0.00 0.00 0.00 51 1014.6
20260507234548 28 291 0.0 0.0 0.00 0.00 0.00 53 1014.7
20260507233043 28 224 0.0 0.0 0.00 0.00 0.00 51 1014.8
20260507231545 28 244 0.0 0.0 0.00 0.00 0.00 52 1015.0
20260507230038 28 282 0.0 0.0 0.00 0.00 0.00 53 1015.2
20260507224536 28 242 0.0 0.0 0.00 0.00 0.00 54 1015.4
20260507223034 27 254 0.0 0.0 0.00 0.00 0.00 55 1015.6
20260507221531 27 340 0.0 0.0 0.00 0.00 0.00 55 1015.9
20260507220028 27 267 0.0 0.0 0.00 0.00 0.00 55 1016.1
20260507214528 27 335 0.0 0.0 0.00 0.00 0.00 56 1016.4
20260507213020 26 250 0.0 0.0 0.00 0.00 0.00 58 1016.6
20260507211518 26 324 0.0 0.0 0.00 0.00 0.00 58 1016.9
20260507210014 26 343 0.0 0.0 0.00 0.00 0.00 58 1017.0
20260507204511 26 330 0.0 0.0 0.00 0.00 0.00 58 1017.1
20260507203008 25 242 0.0 0.0 0.00 0.00 0.00 60 1017.2
20260507201509 25 271 0.0 0.0 0.00 0.00 0.00 61 1017.4
20260507200107 24 5 0.0 0.0 0.00 0.00 0.00 60 1017.5
20260507194557 24 295 0.0 0.0 0.00 0.00 0.00 62 1017.7
20260507193059 23 338 0.0 0.0 0.00 0.00 0.00 63 1017.9
20260507191552 23 271 0.0 0.0 0.00 0.00 0.00 65 1018.1
20260507190048 23 254 0.0 0.0 0.00 0.00 0.00 66 1018.3
20260507184548 22 250 0.0 0.0 0.00 0.00 0.00 66 1018.4
20260507183041 22 296 0.0 0.0 0.00 0.00 0.00 66 1018.4
20260507181537 22 257 0.0 0.0 0.00 0.00 0.00 68 1018.5
20260507180033 21 328 0.0 0.0 0.00 0.00 0.00 69 1018.6
20260507174544 20 221 0.0 0.0 0.00 0.00 0.00 70 1018.6
20260507173027 20 269 0.0 0.0 0.00 0.00 0.00 72 1018.6
20260507171530 19 251 0.0 0.0 0.00 0.00 0.00 73 1018.7
20260507170018 18 239 0.0 0.0 0.00 0.00 0.00 75 1018.9
20260507164514 18 267 0.0 0.0 0.00 0.00 0.00 78 1018.9
20260507163014 17 251 0.0 0.0 0.00 0.00 0.00 80 1018.9
20260507161505 16 272 0.0 0.0 0.00 0.00 0.00 83 1019.0
20260507160120 16 250 0.0 0.0 0.00 0.00 0.00 85 1019.1
20260507154557 15 268 0.0 0.0 0.00 0.00 0.00 87 1019.1
20260507153052 15 232 0.0 0.0 0.00 0.00 0.00 88 1019.1
20260507151555 14 256 0.0 0.0 0.00 0.00 0.00 89 1019.2
20260507150043 13 261 0.0 0.0 0.00 0.00 0.00 91 1019.2
20260507144543 13 269 0.0 0.0 0.00 0.00 0.00 93 1019.2
20260507143038 13 232 0.0 0.0 0.00 0.00 0.00 94 1019.1
20260507141537 12 260 0.0 0.0 0.00 0.00 0.00 94 1019.1
20260507140038 12 249 0.0 0.0 0.00 0.00 0.00 94 1019.0
20260507134526 11 249 0.0 0.0 0.00 0.00 0.00 93 1019.0
20260507133022 11 241 0.0 0.0 0.00 0.00 0.00 92 1018.7
20260507131533 11 287 0.0 0.0 0.00 0.00 0.00 92 1018.6
20260507130016 11 287 0.0 0.0 0.00 0.00 0.00 91 1018.5
20260507124517 12 287 0.0 0.0 0.00 0.00 0.00 91 1018.5
20260507123010 12 287 0.0 0.0 0.00 0.00 0.00 92 1018.5
20260507121510 12 287 0.0 0.0 0.00 0.00 0.00 92 1018.4
20260507120017 12 287 0.0 0.0 0.00 0.00 0.00 92 1018.3
20260507114507 12 287 0.0 0.0 0.00 0.00 0.00 92 1018.2
20260507113006 12 287 0.0 0.0 0.00 0.00 0.00 92 1018.2
20260507111506 12 286 0.0 0.0 0.00 0.00 0.00 92 1018.4
20260507110005 12 267 0.0 0.0 0.00 0.00 0.00 92 1018.3
20260507104505 12 277 0.0 0.0 0.00 0.00 0.00 92 1018.2